Content
SEND FEEDBACK

Daily
Averages
Monthly
Summary
United States of America

ARROYO SEQUIT PARK, CALIFORNIA


Home > North America > United States > California
Elevation: 1600 feet     Latitude: 34 05N     Longitude: 118 53W

WEATHER
 
SELECT A DAY
Number of Records: 212,144;   Date Range: 1/1/95 - 12/19/14
 
SHARE

PRINT THIS DATA

[ ← Previous Day ]
WEATHER ALMANAC - JANUARY 23, 2013
[ Next Day → ]
[ °C ]   °F
Weather ElementAverageHighLow
Temperature62.2 °F75 °F (11:55 am)53.1 °F (4:55 am)
Dewpoint35.4 °F48 °F (8:55 pm)21 °F (2:55 am)
Humidity39.4 %72 % (10:55 pm)20 % (7:55 am)
Barometer30.07 in30.13 in (9:55 pm)30.03 in (1:55 pm)
Wind Speed5.1 mph21.9 mph (11:55 pm)
Wind Gust29.9 mph (11:55 pm)
Weather ElementAverage
Visibility9.8 mi
Wind DirectionESE (105.9 °)

Weather ElementTotal
Precipitation0.04 in
Heating Degree Days1 (Base 65)
Growing Degree Days14.1 (Base 50)
Averaged from 22 records on January 23, 2013
WEATHER CONDITIONS BREAKOUT
WIND DIRECTION BREAKOUT
WEATHER BY HOUR - JANUARY 23, 2013
[ °C ]   °F
Local TimeTemperatureDewpointHumidityBarometerVisibilityWind DirectionWind SpeedGust SpeedPrecipitationEventsConditions
1:55 AM57.0 °F25.0 °F29 %30.06 in10.0 miENE (60°)3.5 mphClear
2:55 AM61.0 °F21.0 °F21 %30.06 in10.0 miENE (60°)9.2 mphClear
3:55 AM57.0 °F24.1 °F28 %30.05 in10.0 miCalmClear
4:55 AM53.1 °F30.0 °F41 %30.04 in10.0 miCalmClear
5:55 AM55.0 °F28.9 °F37 %30.04 in10.0 miCalmClear
6:55 AM57.0 °F26.1 °F30 %30.04 in10.0 miNNE (30°)4.6 mphClear
7:55 AM64.0 °F21.9 °F20 %30.04 in10.0 miNE (40°)10.4 mphClear
8:55 AM61.0 °F32.0 °F34 %30.05 in10.0 miCalmClear
9:55 AM64.9 °F34.0 °F32 %30.06 in10.0 miWest (270°)4.6 mphClear
10:55 AM72.0 °F33.1 °F24 %30.07 in10.0 miCalmClear
11:55 AM75.0 °F37.9 °F26 %30.05 in10.0 miSSW (200°)5.8 mphClear
1:55 PM69.1 °F43.0 °F39 %30.03 in8.0 miWest (260°)3.5 mphScattered Clouds
2:55 PM71.1 °F37.0 °F29 %30.04 in10.0 miSSW (210°)6.9 mphOvercast
3:55 PM68.0 °F35.1 °F30 %30.05 in10.0 miWest (280°)5.8 mphMostly Cloudy
4:55 PM64.0 °F36.0 °F35 %30.06 in10.0 miNW (310°)5.8 mphOvercast
5:55 PM63.0 °F41.0 °F45 %30.10 in10.0 miSSE (160°)4.6 mphMostly Cloudy
6:55 PM62.1 °F41.0 °F46 %30.09 in10.0 miSSE (150°)4.6 mphOvercast
7:55 PM60.1 °F42.1 °F51 %30.09 in10.0 miCalmOvercast
8:55 PM59.0 °F48.0 °F67 %30.10 in10.0 miEast (100°)5.8 mph0.00 inRainLight Rain
9:55 PM59.0 °F46.9 °F64 %30.13 in10.0 miEast (80°)6.9 mph0.00 inRainLight Rain
10:55 PM57.0 °F48.0 °F72 %30.13 in10.0 miENE (60°)8.1 mph0.02 inRainLight Rain
11:55 PM57.9 °F46.9 °F67 %30.12 in8.0 miENE (60°)21.9 mph29.9 mph0.02 inRainRain
Hourly data recorded from KCMA, located miles away from Arroyo Sequit Park, California







STORIES FROM OUR PARTNERS